SCP
0 0 0 0 0 0 0 0 0 0 0 0 0 0 0 0 0 0 0 0 0 0 0 0 0 0 0 0 0 0 0 0 0 0 0 0 0 0 0 0 0 0 0
0 0 0 0 0 0 0 0 0 0 0 0 0 0 0 0 0 0 0 0 0 0 0 0 0 0 -0 -0 0 0 0 0 0 0 0 0 0 0 0 0 0 0 0
0 0 0 0 0 0 0 0 0 0 0 0 0 0 0 0 0 0 0 0 0 0 0 -0 0 -0 -0 0 0 0 0 0 0 0 0 0 0 0 0 0 0 0 0
0 0 0 0 0 0 0 0 0 0 0 0 0 0 0 0 0 0 0 0 0 0 -0 0 0 -0 0 0 0 0 0 0 0 0 0 0 0 0 0 0 0 0 0
0 0 0 0 0 0 0 0 0 0 0 0 0 0 0 0 0 0 0 0 0 0 -0 0 -0 0 0 0 0 0 0 0 0 0 0 0 0 0 0 0 0 0 0
0 0 0 0 0 0 0 0 0 0 0 0 0 0 0 0 0 0 0 0 0 0 0 -0 0 0 0 0 0 0 0 0 0 0 0 0 0 0 0 0 0 0 0
0 0 0 0 0 0 0 0 0 0 0 0 0 0 0 0 0 0 0 0 0 0 0 0 0 0 0 0 0 0 0 0 0 0 0 0 0 0 0 0 0 0 0
0 0 0 0 0 0 0 0 0 0 0 0 0 0 0 0 0 0 0 0 0 -0 0 0 0 0 0 0 0 0 0 0 0 0 0 0 0 0 0 0 0 0 0
0 0 -0 0 0 0 0 0 0 0 0 0 0 0 0 0 0 0 0 0 -0 -0 0 0 0 0 0 0 0 0 0 0 0 0 0 0 0 0 0 0 0 0 0
0 0 0 0 0 0 0 0 -0 0 0 0 0 0 0 0 0 0 0 0 0 0 0 0 0 0 0 0 0 0 0 0 0 0 0 0 0 -0 0 0 0 0 0
-0 -0 -0 -0 0 -0 -0 -0 -0 0 0 0 0 0 0 0 0 0 0 0 0 0 0 0 0 0 0 0 0 0 0 0 0 0 0 0 0 0 0 0 0 0 0
-0 -0 -0 -0 -0 -0 -0 -0 -0 -0 0 0 0 0 0 0 0 0 0 0 0 0 0 0 0 0 0 0 0 0 0 0 0 0 0 0 0 0 0 0 0 0 0
-0 -0 -0 -0 -0 -0 -0 -0 0 0 0 0 0 0 0 0 0 0 0 0 0 0 0 0 0 0 0 0 0 0 0 0 0 0 0 0 0 0 0 0 0 0 0
-0 -0 -0 -0 -0 -0 -0 -0 -0 -0 0 0 0 0 0 0 0 0 0 0 0 0 0 0 0 0 0 0 0 0 0 0 0 0 0 0 0 -0 0 0 0 0 0
-0 -0 -0 -0 -0 -0 -0 -0 -0 -0 0 0 0 0 0 0 0 0 0 0 0 0 0 0 0 0 0 0 0 0 0 0 0 0 0 0 0 0 -0 0 0 0 -0
-0 -0 -0 -0 -0 -0 -0 -0 -0 -0 -0 0 0 0 -0 0 0 0 0 0 0 -0 0 0 0 0 0 0 0 0 0 0 0 0 0 0 0 0 0 0 0 0 0
-0 -0 -0 -0 -0 -0 -0 -0 -0 -0 -0 -0 0 0 0 0 0 0 0 0 0 0 0 0 0 0 0 -0 0 0 0 0 0 0 0 0 0 0 0 0 0 0 0
-0 -0 -0 -0 -0 -0 -0 -0 -0 -0 -0 -0 0 0 0 0 0 0 0 0 0 0 0 0 0 0 -0 0 0 0 0 0 0 0 -0 -0 -0 0 0 0 0 0 0
-0 -0 -0 -0 -0 -0 -0 -0 -0 -0 -0 -0 0 0 0 0 0 0 0 0 0 0 0 0 0 0 -0 0 0 0 0 -0 -0 -0 -0 0 -0 0 0 0 0 0 0
-0 -0 -0 -0 -0 -0 -0 -0 -0 -0 -0 -0 -0 0 0 0 0 0 0 0 0 0 0 0 0 0 -0 -0 0 0 0 0 -0 -0 -0 0 0 0 0 -0 -0 0 -0
-0 -0 -0 -0 -0 -0 -0 -0 -0 -0 -0 -0 -0 0 0 0 0 0 0 0 0 0 0 0 0 0 0 -0 0 0 0 0 -0 -0 0 -0 -0 0 0 0 0 0 -0
-0 -0 -0 -0 0 -0 -0 -0 -0 -0 -0 -0 -0 -0 -0 0 0 0 0 0 0 0 0 0 0 0 0 0 0 0 0 0 0 -0 -0 -0 0 0 0 0 0 0 -0
-0 -0 -0 0 -0 -0 -0 -0 -0 -0 -0 0 -0 -0 -0 -0 -0 0 0 0 0 0 0 0 0 0 0 0 0 -0 0 0 0 -0 0 0 0 -0 0 -0 0 0 0
-0 -0 0 0 -0 -0 -0 -0 -0 -0 -0 0 0 0 0 0 -0 0 0 0 0 0 0 0 0 0 -0 -0 -0 -0 -0 0 0 0 -0 -0 0 0 0 0 0 0 0
-0 -0 0 0 -0 0 -0 -0 0 -0 -0 0 0 0 0 0 0 0 0 0 0 0 0 0 0 -0 0 0 -0 -0 0 0 0 -0 0 0 0 0 0 0 0 0 0
0 0 0 0 0 0 0 -0 -0 0 -0 0 0 0 0 0 0 0 0 0 0 0 -0 -0 -0 -0 -0 -0 -0 -0 -0 -0 -0 0 0 0 0 0 0 0 0 0 0
Wind_Speed_500mb
48 64 73 66 56 42 30 25 16 11 10 8 13 20 31 32 30 21 21 21 18 19 19 18 19 16 12 14 27 32 39 38 30 34 35 35 38 33 36 36 37 42 47
43 58 73 66 55 40 29 24 16 10 7 6 14 22 28 27 30 17 16 19 25 13 18 15 14 10 8 20 27 31 36 34 32 38 37 31 30 29 32 39 43 42 43
62 73 71 63 50 36 29 24 15 10 5 9 11 19 17 23 27 17 12 19 17 8 16 16 14 13 12 18 23 32 35 33 36 32 37 20 13 37 35 44 50 45 48
68 75 73 63 50 33 29 23 17 10 12 6 9 16 23 29 27 11 12 8 4 12 14 15 18 15 15 20 23 32 35 33 35 35 34 27 36 35 36 54 54 52 50
72 81 73 62 41 33 31 24 18 10 11 10 9 17 23 21 15 5 6 5 4 12 18 20 21 22 19 18 19 29 28 31 35 40 34 27 33 44 34 55 58 52 49
71 72 65 50 40 33 30 26 19 9 5 9 4 18 16 16 14 8 7 9 9 15 25 25 28 23 23 19 18 21 30 25 37 34 32 31 49 43 65 61 64 64 52
66 67 64 54 41 40 33 27 17 12 9 11 9 14 13 14 14 12 12 9 10 19 30 29 30 23 24 19 15 19 26 22 31 29 27 33 46 48 56 66 58 58 59
60 62 62 51 42 40 35 25 15 13 19 17 9 6 12 8 13 16 20 4 10 21 30 28 29 21 24 17 14 20 22 24 31 30 32 39 45 50 68 56 65 61 57
63 66 59 49 42 39 33 22 19 17 21 17 8 4 11 10 12 16 17 11 18 21 29 27 29 20 23 19 16 20 21 26 32 35 44 48 54 58 64 67 67 76 51
63 63 58 52 40 35 28 23 19 22 18 8 10 7 5 11 12 12 12 16 15 16 22 25 25 27 26 24 20 19 22 21 31 36 53 46 49 66 70 75 71 61 67
70 66 60 50 38 35 31 30 24 26 21 11 13 7 1 9 10 11 12 13 15 19 21 22 27 32 33 26 23 25 30 31 30 30 38 44 53 62 68 73 68 70 65
71 65 59 51 45 42 35 33 30 24 21 15 17 12 4 4 7 14 11 10 16 22 24 31 33 36 35 30 29 34 32 33 35 34 34 47 58 61 71 58 52 39 40
71 66 62 55 49 46 34 28 33 28 23 18 22 15 7 5 10 15 12 16 20 24 28 32 33 37 36 30 28 28 32 29 27 29 36 48 55 60 66 52 40 41 37
75 74 67 58 52 46 36 29 36 32 25 23 25 17 7 17 15 16 19 23 27 28 32 29 31 33 30 29 32 32 30 27 22 24 38 46 51 64 61 48 51 42 48
78 78 72 63 53 50 39 34 36 36 30 29 23 20 22 28 17 26 26 30 34 28 31 34 33 29 25 26 29 31 23 21 25 31 38 50 63 56 52 52 47 48 48
81 79 73 67 58 55 46 40 36 39 36 32 21 31 29 23 21 26 23 28 30 25 24 31 28 22 20 21 24 32 19 27 40 37 40 43 53 46 46 54 45 36 34
83 82 77 72 60 58 50 47 40 43 41 32 25 37 30 27 27 23 21 22 22 20 20 26 25 25 25 25 32 30 27 35 40 42 47 46 52 53 43 44 32 28 26
85 84 80 75 62 55 52 46 45 48 45 37 30 39 38 36 28 28 24 21 16 12 14 25 29 30 29 28 33 36 30 34 40 42 48 60 58 49 45 35 29 26 25
83 84 78 75 66 60 56 54 55 52 51 43 36 37 47 44 35 29 28 23 23 9 15 20 27 32 32 34 37 38 36 40 39 37 39 46 46 37 31 28 26 24 21
79 85 82 80 69 66 64 61 61 60 58 46 38 34 50 45 40 38 30 30 24 14 25 25 25 32 34 34 33 34 35 38 39 38 40 37 38 40 41 38 29 31 27
80 82 83 81 75 72 72 67 66 65 55 41 41 42 39 46 44 41 36 32 30 22 26 30 33 35 30 31 30 33 34 33 33 30 33 33 31 33 33 35 37 28 29
87 84 85 83 80 76 76 73 71 61 54 43 46 49 43 46 41 42 36 31 34 36 32 29 36 38 37 33 32 31 31 27 27 27 27 34 36 35 36 37 41 32 28
94 87 85 85 84 82 77 74 67 62 57 53 50 53 50 50 50 44 43 36 27 46 41 41 31 40 48 43 39 34 31 27 29 23 23 35 37 38 38 35 32 30 26
95 90 86 85 87 88 81 65 64 62 61 58 54 53 59 56 53 47 44 41 38 37 52 44 45 35 42 54 52 45 38 34 31 30 31 33 36 40 38 36 35 30 26
96 89 85 85 87 83 82 74 66 68 69 63 60 59 65 59 58 51 48 44 38 35 49 53 43 47 41 46 51 52 46 34 36 32 38 42 43 46 44 41 37 31 28
92 88 83 85 83 79 78 74 70 73 71 73 68 65 74 66 62 56 51 46 33 28 35 42 42 39 31 32 44 52 51 43 44 42 48 50 49 49 49 46 40 37 37
Wind_Direction_500mb
235 212 202 203 202 206 209 201 205 192 189 213 274 300 309 323 327 306 292 289 301 281 252 233 245 260 252 220 194 199 201 200 204 206 204 204 204 205 194 201 206 190 196
203 194 192 199 206 203 195 195 194 185 171 273 267 300 306 322 331 307 302 302 295 270 248 225 238 216 198 180 183 190 193 200 198 190 173 163 190 196 201 200 194 186 188
183 182 192 199 197 192 193 193 185 175 185 218 281 309 316 330 332 314 297 313 295 255 185 206 197 180 169 174 177 180 188 195 189 199 179 150 176 182 198 193 190 185 179
189 189 192 193 186 188 185 179 184 178 215 232 295 328 335 336 333 314 309 327 318 166 178 178 168 166 161 171 187 195 190 196 194 183 200 201 194 170 161 188 182 176 180
191 191 193 187 182 184 180 179 182 210 238 251 329 340 334 350 350 347 347 16 141 165 164 158 151 152 157 159 173 178 190 196 193 192 195 206 193 181 164 143 163 167 168
186 188 187 181 178 178 176 180 189 212 249 193 265 319 336 6 11 359 327 354 185 173 166 165 161 152 153 148 161 190 185 195 190 188 205 214 186 191 150 150 156 165 174
185 185 180 177 177 177 179 183 199 198 221 207 240 318 336 12 11 6 349 359 153 171 178 176 170 151 154 149 160 174 178 181 179 189 184 198 199 184 163 156 148 148 164
186 181 179 177 179 177 182 187 182 186 182 193 265 326 357 351 14 22 6 12 144 166 174 180 171 163 165 162 167 168 178 175 186 183 189 190 196 180 167 171 168 155 138
184 179 179 181 177 179 186 187 176 184 181 195 271 66 14 18 11 15 23 79 127 144 172 172 176 161 161 170 174 175 170 175 180 180 171 166 164 172 170 176 190 165 150
178 177 180 179 179 183 182 186 182 186 189 196 169 97 34 28 28 22 51 93 120 147 165 173 176 174 166 172 172 171 168 181 178 180 176 180 169 169 167 165 168 177 165
178 178 180 179 181 182 181 179 183 186 185 183 174 145 311 23 52 50 87 99 95 134 149 156 158 159 164 163 162 161 155 165 162 157 166 169 171 171 168 167 166 168 176
178 180 179 180 183 186 182 184 181 188 190 185 168 155 198 31 69 62 79 118 102 123 131 151 148 152 158 158 154 154 155 157 158 158 160 168 172 167 167 158 153 161 177
178 179 179 184 186 189 185 182 186 190 185 173 169 155 178 94 87 69 69 135 129 126 127 141 145 149 155 160 164 154 145 153 161 161 163 169 176 171 164 157 156 153 156
179 179 182 188 189 191 189 181 182 188 183 186 175 174 157 122 103 83 91 134 134 126 133 138 147 151 156 163 167 168 157 156 153 164 172 176 171 172 159 156 151 154 151
181 184 186 190 193 192 190 184 182 186 187 188 179 166 143 124 110 99 94 117 129 125 137 144 147 157 160 173 179 186 187 189 178 164 170 171 164 162 172 165 155 146 150
185 190 191 191 193 194 189 184 181 188 191 189 178 160 149 158 143 115 96 125 134 131 145 157 160 161 163 172 174 170 158 157 150 149 150 158 163 160 151 154 157 154 159
189 194 196 195 193 195 191 186 183 188 190 191 180 169 164 156 146 143 133 117 118 114 119 148 160 156 143 152 157 155 156 150 146 143 150 151 149 151 147 149 145 153 152
193 199 198 198 195 193 192 186 185 191 190 190 186 174 171 169 162 164 174 164 135 111 136 141 154 152 140 146 141 142 146 148 146 149 153 152 155 155 151 154 160 160 164
199 200 201 200 193 192 190 187 187 193 192 190 189 179 176 177 178 170 167 169 159 134 153 144 145 153 151 151 144 144 139 144 147 147 150 162 166 166 161 162 160 161 168
201 201 203 202 194 192 190 187 190 194 195 194 192 187 185 185 187 191 185 172 175 165 167 163 153 148 144 151 157 156 156 156 158 156 158 166 174 175 172 173 174 165 161
202 205 204 202 197 192 190 191 192 197 200 197 194 194 184 187 191 188 192 201 193 184 168 173 171 169 162 153 152 160 160 157 156 151 161 164 166 165 174 188 191 191 206
203 204 205 204 199 194 192 194 197 197 198 194 195 200 191 185 191 194 198 197 204 193 185 177 180 182 181 178 178 184 186 184 179 180 180 184 184 186 184 185 195 204 200
201 202 206 203 202 196 196 198 200 194 194 194 194 201 197 193 196 193 198 204 206 199 195 196 193 190 192 192 196 195 195 197 207 208 191 186 187 187 183 179 183 185 193
198 199 201 204 202 199 201 204 198 193 195 197 197 202 198 197 201 203 205 211 211 207 201 207 209 206 201 205 206 206 203 204 197 200 199 195 191 190 187 187 194 202 213
196 194 199 205 204 201 203 203 200 194 196 199 201 205 202 199 200 207 210 217 228 227 210 210 213 212 216 211 209 209 207 203 193 194 195 193 194 192 192 199 208 213 221
191 193 201 207 206 202 205 203 201 199 197 198 202 207 204 204 205 207 211 217 225 227 226 222 221 225 232 225 212 211 211 209 199 198 199 198 199 201 203 208 214 223 234
Wind_Speed_850mb
48 64 73 66 56 42 30 25 16 11 10 8 13 20 31 32 30 21 21 21 18 19 19 18 19 16 12 14 27 32 39 38 30 34 35 35 38 33 36 36 37 42 47
43 58 73 66 55 40 29 24 16 10 7 6 14 22 28 27 30 17 16 19 25 13 18 15 14 10 8 20 27 31 36 34 32 38 37 31 30 29 32 39 43 42 43
62 73 71 63 50 36 29 24 15 10 5 9 11 19 17 23 27 17 12 19 17 8 16 16 14 13 12 18 23 32 35 33 36 32 37 20 13 37 35 44 50 45 48
68 75 73 63 50 33 29 23 17 10 12 6 9 16 23 29 27 11 12 8 4 12 14 15 18 15 15 20 23 32 35 33 35 35 34 27 36 35 36 54 54 52 50
72 81 73 62 41 33 31 24 18 10 11 10 9 17 23 21 15 5 6 5 4 12 18 20 21 22 19 18 19 29 28 31 35 40 34 27 33 44 34 55 58 52 49
71 72 65 50 40 33 30 26 19 9 5 9 4 18 16 16 14 8 7 9 9 15 25 25 28 23 23 19 18 21 30 25 37 34 32 31 49 43 65 61 64 64 52
66 67 64 54 41 40 33 27 17 12 9 11 9 14 13 14 14 12 12 9 10 19 30 29 30 23 24 19 15 19 26 22 31 29 27 33 46 48 56 66 58 58 59
60 62 62 51 42 40 35 25 15 13 19 17 9 6 12 8 13 16 20 4 10 21 30 28 29 21 24 17 14 20 22 24 31 30 32 39 45 50 68 56 65 61 57
63 66 59 49 42 39 33 22 19 17 21 17 8 4 11 10 12 16 17 11 18 21 29 27 29 20 23 19 16 20 21 26 32 35 44 48 54 58 64 67 67 76 51
63 63 58 52 40 35 28 23 19 22 18 8 10 7 5 11 12 12 12 16 15 16 22 25 25 27 26 24 20 19 22 21 31 36 53 46 49 66 70 75 71 61 67
70 66 60 50 38 35 31 30 24 26 21 11 13 7 1 9 10 11 12 13 15 19 21 22 27 32 33 26 23 25 30 31 30 30 38 44 53 62 68 73 68 70 65
71 65 59 51 45 42 35 33 30 24 21 15 17 12 4 4 7 14 11 10 16 22 24 31 33 36 35 30 29 34 32 33 35 34 34 47 58 61 71 58 52 39 40
71 66 62 55 49 46 34 28 33 28 23 18 22 15 7 5 10 15 12 16 20 24 28 32 33 37 36 30 28 28 32 29 27 29 36 48 55 60 66 52 40 41 37
75 74 67 58 52 46 36 29 36 32 25 23 25 17 7 17 15 16 19 23 27 28 32 29 31 33 30 29 32 32 30 27 22 24 38 46 51 64 61 48 51 42 48
78 78 72 63 53 50 39 34 36 36 30 29 23 20 22 28 17 26 26 30 34 28 31 34 33 29 25 26 29 31 23 21 25 31 38 50 63 56 52 52 47 48 48
81 79 73 67 58 55 46 40 36 39 36 32 21 31 29 23 21 26 23 28 30 25 24 31 28 22 20 21 24 32 19 27 40 37 40 43 53 46 46 54 45 36 34
83 82 77 72 60 58 50 47 40 43 41 32 25 37 30 27 27 23 21 22 22 20 20 26 25 25 25 25 32 30 27 35 40 42 47 46 52 53 43 44 32 28 26
85 84 80 75 62 55 52 46 45 48 45 37 30 39 38 36 28 28 24 21 16 12 14 25 29 30 29 28 33 36 30 34 40 42 48 60 58 49 45 35 29 26 25
83 84 78 75 66 60 56 54 55 52 51 43 36 37 47 44 35 29 28 23 23 9 15 20 27 32 32 34 37 38 36 40 39 37 39 46 46 37 31 28 26 24 21
79 85 82 80 69 66 64 61 61 60 58 46 38 34 50 45 40 38 30 30 24 14 25 25 25 32 34 34 33 34 35 38 39 38 40 37 38 40 41 38 29 31 27
80 82 83 81 75 72 72 67 66 65 55 41 41 42 39 46 44 41 36 32 30 22 26 30 33 35 30 31 30 33 34 33 33 30 33 33 31 33 33 35 37 28 29
87 84 85 83 80 76 76 73 71 61 54 43 46 49 43 46 41 42 36 31 34 36 32 29 36 38 37 33 32 31 31 27 27 27 27 34 36 35 36 37 41 32 28
94 87 85 85 84 82 77 74 67 62 57 53 50 53 50 50 50 44 43 36 27 46 41 41 31 40 48 43 39 34 31 27 29 23 23 35 37 38 38 35 32 30 26
95 90 86 85 87 88 81 65 64 62 61 58 54 53 59 56 53 47 44 41 38 37 52 44 45 35 42 54 52 45 38 34 31 30 31 33 36 40 38 36 35 30 26
96 89 85 85 87 83 82 74 66 68 69 63 60 59 65 59 58 51 48 44 38 35 49 53 43 47 41 46 51 52 46 34 36 32 38 42 43 46 44 41 37 31 28
92 88 83 85 83 79 78 74 70 73 71 73 68 65 74 66 62 56 51 46 33 28 35 42 42 39 31 32 44 52 51 43 44 42 48 50 49 49 49 46 40 37 37
Wind_Direction_850mb
235 212 202 203 202 206 209 201 205 192 189 213 274 300 309 323 327 306 292 289 301 281 252 233 245 260 252 220 194 199 201 200 204 206 204 204 204 205 194 201 206 190 196
203 194 192 199 206 203 195 195 194 185 171 273 267 300 306 322 331 307 302 302 295 270 248 225 238 216 198 180 183 190 193 200 198 190 173 163 190 196 201 200 194 186 188
183 182 192 199 197 192 193 193 185 175 185 218 281 309 316 330 332 314 297 313 295 255 185 206 197 180 169 174 177 180 188 195 189 199 179 150 176 182 198 193 190 185 179
189 189 192 193 186 188 185 179 184 178 215 232 295 328 335 336 333 314 309 327 318 166 178 178 168 166 161 171 187 195 190 196 194 183 200 201 194 170 161 188 182 176 180
191 191 193 187 182 184 180 179 182 210 238 251 329 340 334 350 350 347 347 16 141 165 164 158 151 152 157 159 173 178 190 196 193 192 195 206 193 181 164 143 163 167 168
186 188 187 181 178 178 176 180 189 212 249 193 265 319 336 6 11 359 327 354 185 173 166 165 161 152 153 148 161 190 185 195 190 188 205 214 186 191 150 150 156 165 174
185 185 180 177 177 177 179 183 199 198 221 207 240 318 336 12 11 6 349 359 153 171 178 176 170 151 154 149 160 174 178 181 179 189 184 198 199 184 163 156 148 148 164
186 181 179 177 179 177 182 187 182 186 182 193 265 326 357 351 14 22 6 12 144 166 174 180 171 163 165 162 167 168 178 175 186 183 189 190 196 180 167 171 168 155 138
184 179 179 181 177 179 186 187 176 184 181 195 271 66 14 18 11 15 23 79 127 144 172 172 176 161 161 170 174 175 170 175 180 180 171 166 164 172 170 176 190 165 150
178 177 180 179 179 183 182 186 182 186 189 196 169 97 34 28 28 22 51 93 120 147 165 173 176 174 166 172 172 171 168 181 178 180 176 180 169 169 167 165 168 177 165
178 178 180 179 181 182 181 179 183 186 185 183 174 145 311 23 52 50 87 99 95 134 149 156 158 159 164 163 162 161 155 165 162 157 166 169 171 171 168 167 166 168 176
178 180 179 180 183 186 182 184 181 188 190 185 168 155 198 31 69 62 79 118 102 123 131 151 148 152 158 158 154 154 155 157 158 158 160 168 172 167 167 158 153 161 177
178 179 179 184 186 189 185 182 186 190 185 173 169 155 178 94 87 69 69 135 129 126 127 141 145 149 155 160 164 154 145 153 161 161 163 169 176 171 164 157 156 153 156
179 179 182 188 189 191 189 181 182 188 183 186 175 174 157 122 103 83 91 134 134 126 133 138 147 151 156 163 167 168 157 156 153 164 172 176 171 172 159 156 151 154 151
181 184 186 190 193 192 190 184 182 186 187 188 179 166 143 124 110 99 94 117 129 125 137 144 147 157 160 173 179 186 187 189 178 164 170 171 164 162 172 165 155 146 150
185 190 191 191 193 194 189 184 181 188 191 189 178 160 149 158 143 115 96 125 134 131 145 157 160 161 163 172 174 170 158 157 150 149 150 158 163 160 151 154 157 154 159
189 194 196 195 193 195 191 186 183 188 190 191 180 169 164 156 146 143 133 117 118 114 119 148 160 156 143 152 157 155 156 150 146 143 150 151 149 151 147 149 145 153 152
193 199 198 198 195 193 192 186 185 191 190 190 186 174 171 169 162 164 174 164 135 111 136 141 154 152 140 146 141 142 146 148 146 149 153 152 155 155 151 154 160 160 164
199 200 201 200 193 192 190 187 187 193 192 190 189 179 176 177 178 170 167 169 159 134 153 144 145 153 151 151 144 144 139 144 147 147 150 162 166 166 161 162 160 161 168
201 201 203 202 194 192 190 187 190 194 195 194 192 187 185 185 187 191 185 172 175 165 167 163 153 148 144 151 157 156 156 156 158 156 158 166 174 175 172 173 174 165 161
202 205 204 202 197 192 190 191 192 197 200 197 194 194 184 187 191 188 192 201 193 184 168 173 171 169 162 153 152 160 160 157 156 151 161 164 166 165 174 188 191 191 206
203 204 205 204 199 194 192 194 197 197 198 194 195 200 191 185 191 194 198 197 204 193 185 177 180 182 181 178 178 184 186 184 179 180 180 184 184 186 184 185 195 204 200
201 202 206 203 202 196 196 198 200 194 194 194 194 201 197 193 196 193 198 204 206 199 195 196 193 190 192 192 196 195 195 197 207 208 191 186 187 187 183 179 183 185 193
198 199 201 204 202 199 201 204 198 193 195 197 197 202 198 197 201 203 205 211 211 207 201 207 209 206 201 205 206 206 203 204 197 200 199 195 191 190 187 187 194 202 213
196 194 199 205 204 201 203 203 200 194 196 199 201 205 202 199 200 207 210 217 228 227 210 210 213 212 216 211 209 209 207 203 193 194 195 193 194 192 192 199 208 213 221
191 193 201 207 206 202 205 203 201 199 197 198 202 207 204 204 205 207 211 217 225 227 226 222 221 225 232 225 212 211 211 209 199 198 199 198 199 201 203 208 214 223 234